Weather History for Harrison, AR

Change the Weather History Date:

Sunday, May 6, 2012

  Actual Average Record
Temperature  
Mean Temperature 74 °F 63 °F  
Max Temperature 86 °F 74 °F 92 °F (1940)
Min Temperature 61 °F 53 °F 33 °F (1911)
Degree Days  
Heating Degree Days 0 4  
Month to date heating degree days 0 24  
Since 1 July heating degree days 3058 3945  
Cooling Degree Days 9 2  
Month to date cooling degree days 56 12  
Year to date cooling degree days 184 49  
Growing Degree Days 24 (Base 50)    
Moisture  
Dew Point 64 °F    
Average Humidity 76    
Maximum Humidity 100    
Minimum Humidity 51    
Precipitation  
Precipitation 0.00 in 0.18 in 2.60 in (1907)
Month to date precipitation 0.11 1.03  
Year to date precipitation 13.01 14.34  
Snow  
Snow 0.00 in 0.00 in - ()
Month to date snowfall 0.0 0.0  
Since 1 July snowfall 2.1 11.5  
Snow Depth 0.00 in    
Sea Level Pressure  
Sea Level Pressure 29.87 in    
Wind  
Wind Speed 6 mph (SSE)    
Max Wind Speed 18 mph    
Max Gust Speed 26 mph    
Visibility 7 miles    
Events Fog , Thunderstorm    
T = Trace of Precipitation, MM = Missing Value Source: NWS Daily Summary

Daily Weather History Graph

Daily Weather History Graph

Search for Another Location

Airport:

Trip Planner

Search our weather history database for the weather conditions in past years. The results will help you decide how hot, cold, wet, or windy it might be!

Date:

Astronomy

May. 06, 2012 Rise Set
Actual Time 6:13 AM CDT 8:05 PM CDT
Civil Twilight 5:45 AM CDT 8:33 PM CDT
Nautical Twilight 5:12 AM CDT 9:07 PM CDT
Astronomical Twilight 4:35 AM CDT 9:43 PM CDT
Moon 9:08 PM CDT (5/6) 6:26 AM CDT (5/6)
Length of Visible Light 14h 47m
Length of Day
13h 51m
Full, 100% of the Moon is Illuminated
May 6
Full
May 12
Last Quarter
May 20
New
May 28
First Quarter
Jun 4
Full

Hourly Weather History & Observations

Time (CDT) Temp. Heat Index Dew Point Humidity Pressure Visibility Wind Dir Wind Speed Gust Speed Precip Events Conditions
12:53 AM 70.0 °F - 66.0 °F 87% 29.86 in 10.0 mi SE 4.6 mph - N/A   Clear
1:53 AM 70.0 °F - 66.9 °F 90% 29.85 in 10.0 mi SE 4.6 mph - N/A   Clear
2:53 AM 69.1 °F - 66.0 °F 90% 29.85 in 9.0 mi Calm Calm - N/A   Clear
3:53 AM 66.0 °F - 64.9 °F 96% 29.85 in 4.0 mi Calm Calm - N/A   Clear
4:53 AM 64.0 °F - 63.0 °F 96% 29.84 in 4.0 mi Calm Calm - N/A   Clear
5:07 AM 64.4 °F - 64.4 °F 100% 29.88 in 2.0 mi Calm Calm - N/A   Clear
5:24 AM 64.4 °F - 64.4 °F 100% 29.89 in 4.0 mi East 3.5 mph - N/A   Clear
5:53 AM 66.0 °F - 64.9 °F 96% 29.85 in 6.0 mi Calm Calm - N/A   Clear
6:08 AM 64.4 °F - 64.4 °F 100% 29.90 in 1.5 mi Calm Calm - N/A   Clear
6:10 AM 64.4 °F - 62.6 °F 94% 29.90 in 0.8 mi Calm Calm - N/A   Mist
6:12 AM 64.4 °F - 62.6 °F 94% 29.90 in 0.2 mi Calm Calm - N/A Fog Fog
6:23 AM 62.6 °F - 62.6 °F 100% 29.91 in 0.8 mi Calm Calm - N/A   Mist
6:26 AM 62.6 °F - 62.6 °F 100% 29.91 in 1.2 mi Calm Calm - N/A   Partly Cloudy
6:35 AM 62.6 °F - 60.8 °F 94% 29.92 in 3.0 mi Calm Calm - N/A   Partly Cloudy
6:53 AM 63.0 °F - 62.1 °F 97% 29.88 in 4.0 mi SE 3.5 mph - N/A   Clear
7:53 AM 68.0 °F - 66.0 °F 93% 29.89 in 5.0 mi ESE 6.9 mph - N/A   Clear
8:53 AM 73.0 °F - 68.0 °F 84% 29.90 in 9.0 mi South 6.9 mph - N/A   Clear
9:53 AM 77.0 °F - 69.1 °F 76% 29.89 in 10.0 mi SE 10.4 mph - N/A   Clear
10:53 AM 80.1 °F 82.9 °F 69.1 °F 69% 29.89 in 10.0 mi SSE 11.5 mph - N/A   Partly Cloudy
11:53 AM 82.0 °F 85.5 °F 69.1 °F 65% 29.87 in 10.0 mi SSE 12.7 mph 20.7 mph N/A   Partly Cloudy
12:53 PM 84.0 °F 87.0 °F 68.0 °F 58% 29.86 in 10.0 mi SE 15.0 mph - N/A   Partly Cloudy
1:53 PM 84.2 °F 86.6 °F 66.2 °F 55% 29.91 in 10.0 mi South 12.7 mph - N/A   Partly Cloudy
2:53 PM 86.0 °F 88.2 °F 66.0 °F 51% 29.86 in 10.0 mi SSE 10.4 mph - N/A   Scattered Clouds
3:53 PM 82.9 °F 84.6 °F 64.9 °F 54% 29.87 in 10.0 mi SW 6.9 mph - N/A   Partly Cloudy
4:15 PM 82.4 °F 84.6 °F 66.2 °F 58% 29.93 in 10.0 mi NW 12.7 mph 24.2 mph N/A Thunderstorm Partly Cloudy
4:53 PM 72.0 °F - 59.0 °F 64% 29.91 in 10.0 mi NNW 9.2 mph 18.4 mph N/A Thunderstorm Scattered Clouds
5:24 PM 73.4 °F - 57.2 °F 57% 29.91 in 10.0 mi Calm Calm - N/A   Partly Cloudy
5:53 PM 75.0 °F - 61.0 °F 62% 29.86 in 10.0 mi NW 3.5 mph - N/A   Clear
6:53 PM 75.0 °F - 62.1 °F 64% 29.82 in 10.0 mi South 6.9 mph - N/A   Clear
7:53 PM 72.0 °F - 62.1 °F 71% 29.81 in 10.0 mi South 3.5 mph - N/A   Clear
8:53 PM 73.9 °F - 64.0 °F 71% 29.81 in 10.0 mi South 9.2 mph - N/A   Clear
9:53 PM 71.1 °F - 64.0 °F 78% 29.83 in 10.0 mi Calm Calm - N/A   Clear
10:53 PM 69.1 °F - 64.0 °F 84% 29.84 in 10.0 mi North 3.5 mph - N/A   Clear
11:53 PM 66.0 °F - 63.0 °F 90% 29.86 in 10.0 mi Calm Calm - N/A   Clear